Regional Weather Roundup
Issued by NWS Newport/Morehead, NC

Home | Current Version | Previous Version | Text Only | Print | Product List | Glossary On
Versions: 1 2 3 4 5 6 7 8 9 10 11 12 13 14 15 16 17 18 19 20 21 22 23 24 25 26 27 28 29 30 31 32 33 34 35 36 37 38 39 40 41 42 43 44 45 46 47 48 49 50
000
ASUS42 KMHX 231322
RWRMHX
WEATHER ROUNDUP FOR EASTERN NORTH CAROLINA
NATIONAL WEATHER SERVICE NEWPORT/MOREHEAD CITY NC
800 AM EST SUN NOV 23 2014

NOTE: "FAIR" INDICATES FEW OR NO CLOUDS BELOW 12,000 FEET
WITH NO SIGNIFICANT WEATHER AND/OR OBSTRUCTIONS TO VISIBILITY

NCZ015>017-031-032-045>047-102-103-231400-
NORTH COAST

CITY           SKY/WX    TMP DP  RH WIND       PRES   REMARKS
EDENTON        CLOUDY    42  38  86 CALM      30.27F
ELIZABETH CITY CLOUDY    46  39  76 CALM      30.29F
KITTY HAWK     CLOUDY    56  47  71 CALM      30.28F
MANTEO         CLOUDY    55  47  74 CALM      30.29F

$$

NCZ045>047-081-094-103-104-231400-
CENTRAL COAST

CITY           SKY/WX    TMP DP  RH WIND       PRES   REMARKS
FRISCO         CLOUDY    54  53  97 NE3       30.29F
SWANQUARTER      N/A     50 N/A N/A E2        30.21F

$$

NCZ095-097-098-100-101-231400-
SOUTHERN COAST

CITY           SKY/WX    TMP DP  RH WIND       PRES   REMARKS
BEAUFORT       CLOUDY    52  49  89 E6        30.25F
CEDAR ISLAND     N/A     54 N/A N/A NE2       30.30S
JACKSONVILLE   LGT RAIN  49  47  93 CALM      30.24F
PINEY ISLAND   CLOUDY    55  49  80 E6        30.26F
WILMINGTON     LGT RAIN  57  55  93 E6        30.24F


$$

NCZ011>013-027>030-043-044-078>080-089-090>093-098-231400-
COASTAL PLAIN

CITY           SKY/WX    TMP DP  RH WIND       PRES   REMARKS
AHOSKIE        CLOUDY    37  32  82 CALM      30.27F
CLINTON        CLOUDY    46  44  93 CALM      30.27S
ELIZABETHTOWN  DRIZZLE   47  47 100 CALM      30.24F
GOLDSBORO      CLOUDY    43  41  91 CALM      30.25F
GREENVILLE     CLOUDY    41  36  81 CALM      30.27F
HAVELOCK       CLOUDY    51  48  89 E5        30.26F
KENANSVILLE    CLOUDY    46  42  88 CALM      30.27S
KINSTON        CLOUDY    43  39  87 N5        30.27S
NEW BERN       LGT RAIN  52  47  83 CALM      30.26F
RICHLANDS      CLOUDY    48  45  87 CALM      30.26R
ROCKY MOUNT    CLOUDY    41  30  65 NE3       30.26F
WASHINGTON     CLOUDY    43  39  86 CALM      30.26F
WHITEVILLE     LGT RAIN  51  51  97 CALM      30.23S

$$

AMZ130-135-150-152-154-156-158-170-250-252-270-ANZ085-086-088-633-658-670-231400-
MARINE OBSERVATIONS

STATION/POSITION TIME  TEMP    WIND        PRES    WAVE   SWELL
                       AIR SEA DIR/SP/G            HT/PER HT/PER
                 (UTC) (F)     (DEG/KT/KT) (MB)    (FT/S) (FT/S)
CHESAPEAKE LIGHT 1300   51     230/  4/  5 1026.3
64 E VA BEACH    1300   64 62  210/ 14/ 16 1025.7    2/ 9   2/ 9
DUCK             1300   54 54  140/  4/  5 1024.8
2 E DUCK         1300      56                N/A     1/ 9
10 NE DUCK       1300      58                N/A     1/ 8
OREGON INLET     1300   56 50  130/  5/  6 1025.6
13E OREGON INLT  1300      62                N/A     2/ 8
HATTERAS CG      1300   57 51   90/  5/  6 1025.5
DIAMOND BUOY     1300   68     180/  8/ 10 1025.9    3/ 8   2/ 8
17 S OCRACOKE    NOT AVBL
CAPE LOOKOUT     1300   64     110/  8/  8 1024.3
BEAUFORT LAB     1300   55 53  110/  4/  5 1023.2
30 SE NEW RIVER  1300   69 70  150/ 10/ 12 1023.6    2/ 8   2/ 8
5 SE WRIGHTSVLE  1300   58 60  150/  4/  6 1024.1
225 S CAPE HAT   1249   71 73  130/ 16/ 19 1025.0    4/ 8   3/ 8
41 SE CHARLESTON 1300   71 75  110/ 23/ 29 1019.5    6/ 7   3/ 9

$$



USA.gov is the U.S. government's official web portal to all federal, state and local government web resources and services.